Starlink 11504

operational
NORAD ID: 62274 Int'l Des: 2024-237 Owner: SPXS Country: US Constellation: starlink
LEOCIRCULAR

Starlink 11504について

説明を読み込み中...

リアルタイム位置

3D地球を読み込み中...

次回通過

高度履歴

Altitude vs Time

uPlot chart will show altitude changes over time

軌道要素

1 62274U 24237H 25258.09522895 .00198408 00000-0 15111-2 0 9992
2 62274 42.9999 35.2310 0001371 279.3051 80.7661 15.70871960 45380
Epoch: Sep 15, 2025 • Age: 22 hours

現在のステータス

高度 361.2 km
速度 7.69 km/s
衛星直下点 -25.02°S, 124.3°W
打ち上げ日 Dec 8, 2024
運用期間 0.7 years
タイプ internet

技術仕様

分類 Payload
質量 960.00 kg
乾燥質量 910.00 kg
総質量 960.00 kg
長さ 0.30 m
直径 4.10 m
スパン 29.00 m
形状 Box + pan
製造者 SPXS
バスタイプ Starlink V2MD
フェーズステータス In Orbit
所有者/国 SPXS/US

大規模コンステレーション

Loading constellations...